Location: ???????????
(55.5758°N, 38.4970°E)
Time: 17:10:09
(UTC+00:00)

NOSS 3-2 (C) - Pass Details

Date: 15 November 2025
Orbit: 674 x 1535 km, 63.4° (Epoch: 13 November)

Event Time Altitude Azimuth Distance (km) Brightness Sun altitude
Exits shadow 02:59:05 19° 310° (NW) 2,242 4.9 -16.8°
Maximum altitude 03:04:08 68° 31° (NNE) 1,247 4.1 -16.1°
Drops below altitude 10° 03:12:21 10° 114° (ESE) 3,403 7.6 -14.9°
Sets 03:15:31 0° 117° (ESE) 4,477 8.5 -14.5°
